When you browse on this site, cookies collect data to enhance your experience and personalize the content and advertising you see.
Visit our Privacy Policy to learn more. By continuing to use the site, you agree to this use of cookies and data.
  • In Österreich
  • Länderverzeichnis
  • Für 7 Tage
  • Wassertemperatur
  • Satellitenkarten
  • Wetterkarte
  • News
  • Widgets
  • user-avatar
    Anmelden

    Stündliche Wetter Ondjiwa

    Heute, 25 Juni, Dienstag

    Zeit Temperatur Niederschläge Wind Luftdruck Luftfeuchtigkeit
    00:00 +14°C° 0 mm 1 m/S 666 mmHg 32%
    01:00 +11°C° 0 mm 0 m/S 666 mmHg 37%
    02:00 +11°C° 0 mm 0 m/S 666 mmHg 39%
    03:00 +11°C° 0 mm 0 m/S 666 mmHg 41%
    04:00 +10°C° 0 mm 0 m/S 666 mmHg 43%
    05:00 +11°C° 0 mm 1 m/S 667 mmHg 43%
    06:00 +11°C° 0 mm 1 m/S 667 mmHg 44%
    07:00 +11°C° 0 mm 1 m/S 668 mmHg 44%
    08:00 +15°C° 0 mm 1 m/S 668 mmHg 36%
    09:00 +20°C° 0 mm 1 m/S 669 mmHg 28%
    10:00 +24°C° 0 mm 2 m/S 670 mmHg 20%
    11:00 +26°C° 0 mm 2 m/S 670 mmHg 18%
    12:00 +28°C° 0 mm 2 m/S 669 mmHg 16%
    13:00 +30°C° 0 mm 3 m/S 669 mmHg 14%
    14:00 +30°C° 0 mm 2 m/S 668 mmHg 13%
    15:00 +30°C° 0 mm 2 m/S 668 mmHg 13%
    16:00 +30°C° 0 mm 1 m/S 668 mmHg 12%
    17:00 +27°C° 0 mm 1 m/S 667 mmHg 16%
    18:00 +24°C° 0 mm 1 m/S 667 mmHg 19%
    19:00 +20°C° 0 mm 1 m/S 667 mmHg 22%
    20:00 +19°C° 0 mm 1 m/S 667 mmHg 24%
    21:00 +17°C° 0 mm 2 m/S 667 mmHg 26%
    22:00 +16°C° 0 mm 2 m/S 667 mmHg 28%
    23:00 +15°C° 0 mm 2 m/S 667 mmHg 30%

    Morgen, 26 Juni, Mittwoch

    Zeit Temperatur Niederschläge Wind Luftdruck Luftfeuchtigkeit
    00:00 +14°C° 0 mm 2 m/S 667 mmHg 32%
    01:00 +13°C° 0 mm 1 m/S 667 mmHg 34%
    02:00 +12°C° 0 mm 1 m/S 666 mmHg 37%
    03:00 +11°C° 0 mm 1 m/S 666 mmHg 39%
    04:00 +9°C° 0 mm 0 m/S 666 mmHg 42%
    05:00 +11°C° 0 mm 1 m/S 667 mmHg 41%
    06:00 +11°C° 0 mm 1 m/S 667 mmHg 41%
    07:00 +11°C° 0 mm 1 m/S 668 mmHg 40%
    08:00 +15°C° 0 mm 2 m/S 669 mmHg 34%
    09:00 +19°C° 0 mm 2 m/S 669 mmHg 27%
    10:00 +24°C° 0 mm 3 m/S 670 mmHg 20%
    11:00 +26°C° 0 mm 3 m/S 670 mmHg 18%
    12:00 +29°C° 0 mm 3 m/S 669 mmHg 16%
    13:00 +32°C° 0 mm 4 m/S 669 mmHg 14%
    14:00 +31°C° 0 mm 3 m/S 669 mmHg 13%
    15:00 +31°C° 0 mm 3 m/S 668 mmHg 13%
    16:00 +31°C° 0 mm 2 m/S 668 mmHg 12%
    17:00 +27°C° 0 mm 1 m/S 667 mmHg 16%
    18:00 +24°C° 0 mm 1 m/S 667 mmHg 20%
    19:00 +18°C° 0 mm 0 m/S 666 mmHg 24%
    20:00 +17°C° 0 mm 0 m/S 667 mmHg 26%
    21:00 +19°C° 0 mm 1 m/S 667 mmHg 27%
    22:00 +18°C° 0 mm 1 m/S 667 mmHg 29%
    23:00 +16°C° 0 mm 1 m/S 667 mmHg 31%

    übermorgen, 27 Juni, Donnerstag

    Zeit Temperatur Niederschläge Wind Luftdruck Luftfeuchtigkeit
    00:00 +15°C° 0 mm 1 m/S 667 mmHg 34%
    01:00 +14°C° 0 mm 1 m/S 667 mmHg 36%
    02:00 +13°C° 0 mm 1 m/S 667 mmHg 41%
    03:00 +12°C° 0 mm 1 m/S 667 mmHg 45%
    04:00 +11°C° 0 mm 1 m/S 666 mmHg 49%
    05:00 +11°C° 0 mm 1 m/S 667 mmHg 50%
    06:00 +11°C° 0 mm 1 m/S 667 mmHg 51%
    07:00 +11°C° 0 mm 1 m/S 668 mmHg 51%
    08:00 +15°C° 0 mm 1 m/S 669 mmHg 42%
    09:00 +20°C° 0 mm 1 m/S 670 mmHg 32%
    10:00 +25°C° 0 mm 1 m/S 670 mmHg 23%
    11:00 +27°C° 0 mm 1 m/S 670 mmHg 20%
    12:00 +29°C° 0 mm 2 m/S 670 mmHg 18%
    13:00 +31°C° 0 mm 2 m/S 669 mmHg 15%
    14:00 +31°C° 0 mm 2 m/S 669 mmHg 15%
    15:00 +31°C° 0 mm 2 m/S 668 mmHg 14%
    16:00 +31°C° 0 mm 1 m/S 668 mmHg 13%
    17:00 +28°C° 0 mm 1 m/S 667 mmHg 17%
    18:00 +24°C° 0 mm 1 m/S 667 mmHg 21%
    19:00 +21°C° 0 mm 1 m/S 667 mmHg 25%
    20:00 +20°C° 0 mm 1 m/S 667 mmHg 26%
    21:00 +20°C° 0 mm 1 m/S 667 mmHg 27%
    22:00 +18°C° 0 mm 2 m/S 668 mmHg 28%
    23:00 +17°C° 0 mm 2 m/S 668 mmHg 30%

    28 Juni, Freitag

    Zeit Temperatur Niederschläge Wind Luftdruck Luftfeuchtigkeit
    00:00 +17°C° 0 mm 2 m/S 667 mmHg 31%
    01:00 +16°C° 0 mm 1 m/S 667 mmHg 32%
    02:00 +15°C° 0 mm 1 m/S 667 mmHg 35%
    03:00 +14°C° 0 mm 1 m/S 667 mmHg 38%
    04:00 +12°C° 0 mm 0 m/S 667 mmHg 41%
    05:00 +13°C° 0 mm 1 m/S 667 mmHg 41%
    06:00 +13°C° 0 mm 1 m/S 668 mmHg 41%
    07:00 +13°C° 0 mm 1 m/S 669 mmHg 41%
    08:00 +17°C° 0 mm 2 m/S 669 mmHg 34%
    09:00 +21°C° 0 mm 2 m/S 670 mmHg 28%
    10:00 +26°C° 0 mm 2 m/S 671 mmHg 21%
    11:00 +28°C° 0 mm 3 m/S 671 mmHg 19%
    12:00 +30°C° 0 mm 3 m/S 671 mmHg 17%
    13:00 +33°C° 0 mm 3 m/S 670 mmHg 15%
    14:00 +33°C° 0 mm 3 m/S 670 mmHg 14%
    15:00 +32°C° 0 mm 2 m/S 669 mmHg 14%
    16:00 +32°C° 0 mm 2 m/S 669 mmHg 13%
    17:00 +29°C° 0 mm 2 m/S 669 mmHg 17%
    18:00 +25°C° 0 mm 2 m/S 668 mmHg 21%
    19:00 +21°C° 0 mm 2 m/S 668 mmHg 25%
    20:00 +20°C° 0 mm 2 m/S 668 mmHg 27%
    21:00 +19°C° 0 mm 2 m/S 668 mmHg 29%
    22:00 +19°C° 0 mm 1 m/S 668 mmHg 30%
    23:00 +17°C° 0 mm 2 m/S 668 mmHg 32%

    29 Juni, Samstag

    Zeit Temperatur Niederschläge Wind Luftdruck Luftfeuchtigkeit
    00:00 +17°C° 0 mm 2 m/S 668 mmHg 34%
    01:00 +16°C° 0 mm 2 m/S 668 mmHg 35%
    02:00 +15°C° 0 mm 2 m/S 668 mmHg 37%
    03:00 +14°C° 0 mm 1 m/S 668 mmHg 39%
    04:00 +13°C° 0 mm 1 m/S 668 mmHg 41%
    05:00 +13°C° 0 mm 1 m/S 668 mmHg 42%
    06:00 +13°C° 0 mm 2 m/S 669 mmHg 43%
    07:00 +13°C° 0 mm 2 m/S 669 mmHg 44%
    08:00 +17°C° 0 mm 3 m/S 670 mmHg 37%
    09:00 +21°C° 0 mm 3 m/S 671 mmHg 30%
    10:00 +26°C° 0 mm 4 m/S 672 mmHg 23%
    11:00 +28°C° 0 mm 4 m/S 672 mmHg 20%
    12:00 +30°C° 0 mm 4 m/S 671 mmHg 17%
    13:00 +33°C° 0 mm 4 m/S 671 mmHg 14%
    14:00 +33°C° 0 mm 3 m/S 670 mmHg 14%
    15:00 +33°C° 0 mm 3 m/S 670 mmHg 13%
    16:00 +33°C° 0 mm 3 m/S 669 mmHg 13%
    17:00 +28°C° 0 mm 2 m/S 669 mmHg 16%
    18:00 +25°C° 0 mm 2 m/S 669 mmHg 19%
    19:00 +21°C° 0 mm 2 m/S 668 mmHg 23%
    20:00 +20°C° 0 mm 2 m/S 668 mmHg 24%
    21:00 +19°C° 0 mm 2 m/S 669 mmHg 26%
    22:00 +18°C° 0 mm 2 m/S 669 mmHg 27%
    23:00 +17°C° 0 mm 2 m/S 669 mmHg 29%

    30 Juni, Sonntag

    Zeit Temperatur Niederschläge Wind Luftdruck Luftfeuchtigkeit
    00:00 +16°C° 0 mm 2 m/S 669 mmHg 31%
    01:00 +15°C° 0 mm 2 m/S 669 mmHg 33%
    02:00 +14°C° 0 mm 2 m/S 668 mmHg 35%
    03:00 +13°C° 0 mm 1 m/S 668 mmHg 37%
    04:00 +12°C° 0 mm 1 m/S 668 mmHg 40%
    05:00 +12°C° 0 mm 1 m/S 669 mmHg 40%
    06:00 +12°C° 0 mm 1 m/S 669 mmHg 41%
    07:00 +12°C° 0 mm 2 m/S 670 mmHg 41%
    08:00 +16°C° 0 mm 2 m/S 671 mmHg 33%
    09:00 +20°C° 0 mm 3 m/S 672 mmHg 25%
    10:00 +26°C° 0 mm 4 m/S 673 mmHg 17%
    11:00 +27°C° 0 mm 3 m/S 672 mmHg 15%
    12:00 +29°C° 0 mm 3 m/S 672 mmHg 14%
    13:00 +31°C° 0 mm 3 m/S 672 mmHg 12%
    14:00 +31°C° 0 mm 2 m/S 671 mmHg 12%
    15:00 +31°C° 0 mm 2 m/S 671 mmHg 12%
    16:00 +31°C° 0 mm 2 m/S 670 mmHg 12%
    17:00 +28°C° 0 mm 2 m/S 670 mmHg 15%
    18:00 +25°C° 0 mm 2 m/S 669 mmHg 18%
    19:00 +21°C° 0 mm 2 m/S 669 mmHg 22%
    20:00 +19°C° 0 mm 2 m/S 669 mmHg 23%
    21:00 +18°C° 0 mm 2 m/S 669 mmHg 25%
    22:00 +17°C° 0 mm 2 m/S 669 mmHg 26%
    23:00 +17°C° 0 mm 2 m/S 669 mmHg 28%
    Mehr zeigen